KJ7AZ-3 Weather Reports


Display with metric or nautical units.
time (UTC)temp
F
wind
direction
speed
MPH
gust
MPH
rain 1hr
in
rain 24hr
in
rain mn
in
humidity
%
barometer
mb
20260510031703 74 239 1.0 1.0 0.00 0.00 0.00
20260510030202 75 232 4.0 6.0 0.00 0.00 0.00
20260510023202 75 233 2.0 3.0 0.00 0.00 0.00
20260510020202 75 238 2.0 0.0 0.00 0.00 0.00
20260510014702 75 187 0.0 0.0 0.00 0.00 0.00
20260510013203 76 233 3.0 2.0 0.00 0.00 0.00
20260510011702 78 245 0.0 0.0 0.00 0.00 0.00
20260510004701 80 166 1.0 1.0 0.00 0.00 0.00
20260510003200 81 195 4.0 8.0 0.00 0.00 0.00
20260510001700 84 231 7.0 4.0 0.00 0.00 0.00
20260509234659 87 263 2.0 0.0 0.00 0.00 0.00
20260509233159 87 271 2.0 1.0 0.00 0.00 0.00
20260509231659 83 250 5.0 3.0 0.00 0.00 0.00
20260509230158 85 248 6.0 8.0 0.00 0.00 0.00
20260509224659 87 170 1.0 1.0 0.00 0.00 0.00
20260509223158 83 221 5.0 8.0 0.00 0.00 0.00
20260509221657 87 198 1.0 10.0 0.00 0.00 0.00
20260509220157 88 194 4.0 6.0 0.00 0.00 0.00
20260509214657 87 250 7.0 8.0 0.00 0.00 0.00
20260509213157 85 267 4.0 4.0 0.00 0.00 0.00
20260509211656 86 256 8.0 8.0 0.00 0.00 0.00
20260509210156 89 197 4.0 6.0 0.00 0.00 0.00
20260509204656 86 155 8.0 10.0 0.00 0.00 0.00
20260509203155 83 240 2.0 3.0 0.00 0.00 0.00
20260509201655 86 252 1.0 0.0 0.00 0.00 0.00
20260509200155 87 259 8.0 5.0 0.00 0.00 0.00
20260509194655 83 231 5.0 6.0 0.00 0.00 0.00
20260509193155 88 240 14.0 7.0 0.00 0.00 0.00
20260509191655 86 304 6.0 5.0 0.00 0.00 0.00
20260509190155 83 290 3.0 1.0 0.00 0.00 0.00
20260509184655 84 321 6.0 5.0 0.00 0.00 0.00
20260509183156 83 27 8.0 2.0 0.00 0.00 0.00
20260509181656 82 325 4.0 6.0 0.00 0.00 0.00
20260509180157 82 311 4.0 6.0 0.00 0.00 0.00
20260509174657 81 15 3.0 5.0 0.00 0.00 0.00
20260509173157 79 315 1.0 6.0 0.00 0.00 0.00
20260509171658 79 325 1.0 3.0 0.00 0.00 0.00
20260509170158 79 273 4.0 5.0 0.00 0.00 0.00
20260509164659 79 42 2.0 0.0 0.00 0.00 0.00
20260509163200 77 276 4.0 5.0 0.00 0.00 0.00
20260509161702 75 240 0.0 0.0 0.00 0.00 0.00
20260509160202 76 304 5.0 5.0 0.00 0.00 0.00
20260509154702 74 259 2.0 3.0 0.00 0.00 0.00
20260509153203 73 287 3.0 2.0 0.00 0.00 0.00
20260509151706 73 262 2.0 5.0 0.00 0.00 0.00
20260509150205 71 295 3.0 4.0 0.00 0.00 0.00
20260509144706 70 290 0.0 0.0 0.00 0.00 0.00
20260509143208 68 228 0.0 0.0 0.00 0.00 0.00
20260509141710 66 228 0.0 0.0 0.00 0.00 0.00
20260509140210 66 166 0.0 0.0 0.00 0.00 0.00
20260509134711 67 166 0.0 0.0 0.00 0.00 0.00
20260509133213 63 340 0.0 0.0 0.00 0.00 0.00
20260509131714 64 340 0.0 0.0 0.00 0.00 0.00
20260509130215 62 340 0.0 0.0 0.00 0.00 0.00
20260509124717 58 340 0.0 0.0 0.00 0.00 0.00
20260509123218 52 340 0.0 0.0 0.00 0.00 0.00
20260509121719 48 340 0.0 0.0 0.00 0.00 0.00
20260509120220 48 340 0.0 0.0 0.00 0.00 0.00
20260509114722 49 340 0.0 0.0 0.00 0.00 0.00
20260509113225 49 340 0.0 0.0 0.00 0.00 0.00
20260509111724 47 340 0.0 0.0 0.00 0.00 0.00
20260509100231 52 340 0.0 0.0 0.00 0.00 0.00
20260509094733 53 340 0.0 0.0 0.00 0.00 0.00
20260509093234 52 340 0.0 0.0 0.00 0.00 0.00
20260509091735 51 340 0.0 0.0 0.00 0.00 0.00
20260509090237 48 340 0.0 0.0 0.00 0.00 0.00
20260509084738 49 340 0.0 0.0 0.00 0.00 0.00
20260509083239 49 340 0.0 0.0 0.00 0.00 0.00
20260509081740 46 340 0.0 0.0 0.00 0.00 0.00
20260509080241 48 340 0.0 0.0 0.00 0.00 0.00
20260509074742 49 340 0.0 0.0 0.00 0.00 0.00
20260509073243 49 340 0.0 0.0 0.00 0.00 0.00
20260509071745 49 340 0.0 0.0 0.00 0.00 0.00
20260509070246 51 340 0.0 0.0 0.00 0.00 0.00
20260509064747 54 340 0.0 0.0 0.00 0.00 0.00
20260509063248 54 340 0.0 0.0 0.00 0.00 0.00
20260509061750 51 340 0.0 0.0 0.00 0.00 0.00
20260509054751 52 340 0.0 0.0 0.00 0.00 0.00
20260509053251 54 103 0.0 0.0 0.00 0.00 0.00
20260509051752 59 103 0.0 0.0 0.00 0.00 0.00
20260509050253 58 103 0.0 0.0 0.00 0.00 0.00
20260509044754 58 103 0.0 0.0 0.00 0.00 0.00
20260509043255 56 103 0.0 0.0 0.00 0.00 0.00
20260509041755 53 103 0.0 0.0 0.00 0.00 0.00
20260509040256 54 103 0.0 0.0 0.00 0.00 0.00
20260509034757 57 103 0.0 0.0 0.00 0.00 0.00